DW4559 Weather Reports


time (UTC)temp
C
wind
direction
speed
KPH
gust
KPH
rain 1hr
cm
rain 24hr
cm
rain mn
cm
humidity
%
barometer
mb
20260503050904 8 24 1.6 4.8 0.00 0.00 0.00 62 1005.1
20260503050404 8 355 1.6 4.8 0.00 0.00 0.00 64 1005.2
20260503045904 8 19 1.6 3.2 0.00 0.00 0.00 62 1005.2
20260503045404 8 28 1.6 4.8 0.00 0.00 0.00 63 1005.3
20260503044904 8 340 1.6 4.8 0.00 0.00 0.00 64 1005.3
20260503044404 9 8 0.0 1.6 0.00 0.00 0.00 64 1005.1
20260503043903 9 73 1.6 4.8 0.00 0.00 0.00 63 1005.1
20260503043404 9 79 0.0 4.8 0.00 0.00 0.00 65 1005.2
20260503042904 9 320 1.6 3.2 0.00 0.00 0.00 64 1005.3
20260503042405 9 73 1.6 4.8 0.00 0.00 0.00 63 1005.3
20260503041904 9 65 1.6 3.2 0.00 0.00 0.00 63 1005.5
20260503041403 9 15 1.6 3.2 0.00 0.00 0.00 63 1005.6
20260503040904 9 307 0.0 3.2 0.00 0.00 0.00 64 1005.5
20260503040403 9 319 1.6 4.8 0.00 0.00 0.00 62 1005.4
20260503035904 9 171 1.6 3.2 0.00 0.00 0.00 61 1005.4
20260503035403 9 26 1.6 4.8 0.00 0.00 0.00 61 1005.3
20260503034904 9 96 1.6 4.8 0.00 0.00 0.00 62 1005.2
20260503033904 9 60 3.2 4.8 0.00 0.00 0.00 64 1005.3
20260503033404 9 317 1.6 3.2 0.00 0.00 0.00 64 1005.1
20260503032904 9 346 0.0 3.2 0.00 0.00 0.00 65 1005.1
20260503032404 9 40 1.6 4.8 0.00 0.00 0.00 64 1005.2
20260503031904 10 17 0.0 3.2 0.00 0.00 0.00 64 1005.2
20260503031404 10 49 0.0 3.2 0.00 0.00 0.00 63 1005.2
20260503030403 10 39 0.0 3.2 0.00 0.00 0.00 66 1005.2
20260503025904 10 49 1.6 4.8 0.00 0.00 0.00 67 1005.2
20260503025404 10 274 0.0 3.2 0.00 0.00 0.00 68 1005.2
20260503024904 10 92 1.6 3.2 0.00 0.00 0.00 69 1005.3
20260503023904 8 352 1.6 4.8 0.00 0.00 0.00 79 1005.5
20260503023403 8 298 1.6 4.8 0.00 0.00 0.00 87 1005.5
20260503022903 8 326 0.0 1.6 0.00 0.00 0.00 90 1005.5
20260503022404 8 328 0.0 0.0 0.00 0.00 0.00 90 1005.5
20260503021904 8 328 1.6 3.2 0.00 0.00 0.00 91 1005.6
20260503021403 8 341 0.0 1.6 0.00 0.00 0.00 90 1005.5
20260503020404 8 339 0.0 1.6 0.00 0.00 0.00 90 1005.5
20260503015904 8 342 0.0 1.6 0.00 0.00 0.00 90 1005.5
20260503015404 8 350 0.0 1.6 0.00 0.00 0.00 90 1005.5
20260503014904 8 9 0.0 1.6 0.00 0.00 0.00 89 1005.3
20260503014403 8 27 0.0 1.6 0.00 0.00 0.00 89 1005.3
20260503013404 9 29 0.0 1.6 0.00 0.00 0.00 88 1005.5
20260503012903 9 27 0.0 1.6 0.00 0.00 0.00 87 1005.4
20260503012404 9 33 0.0 0.0 0.00 0.00 0.00 87 1005.4
20260503011903 10 33 0.0 0.0 0.00 0.00 0.00 86 1005.3
20260503011404 10 4 0.0 1.6 0.00 0.00 0.00 86 1005.4
20260503010903 10 33 0.0 0.0 0.00 0.00 0.00 85 1005.2
20260503010404 10 33 0.0 0.0 0.00 0.00 0.00 86 1005.2
20260503005403 10 33 0.0 0.0 0.00 0.00 0.00 84 1005.1
20260503004905 10 33 0.0 0.0 0.00 0.00 0.00 83 1005.0
20260503004404 10 24 0.0 1.6 0.00 0.00 0.00 83 1004.9
20260503003905 10 21 0.0 0.0 0.00 0.00 0.00 82 1005.0
20260503003405 10 8 0.0 1.6 0.00 0.00 0.00 81 1004.9
20260503002405 10 354 0.0 1.6 0.00 0.00 0.00 77 1004.9
20260503001905 10 352 0.0 0.0 0.00 0.00 0.00 76 1004.9
20260503001405 11 352 0.0 1.6 0.00 0.00 0.00 76 1004.8
20260503000905 11 329 0.0 0.0 0.00 0.00 0.00 74 1004.8
20260503000405 11 329 0.0 1.6 0.00 0.00 0.00 74 1004.8
20260502235905 11 328 0.0 1.6 0.00 0.00 0.00 73 1004.8
20260502235405 11 328 0.0 0.0 0.00 0.00 0.00 73 1004.7
20260502234404 12 328 0.0 0.0 0.00 0.00 0.00 70 1004.7
20260502233905 12 328 0.0 0.0 0.00 0.00 0.00 70 1004.7
20260502233404 12 328 0.0 0.0 0.00 0.00 0.00 68 1004.7
20260502232905 12 328 0.0 0.0 0.00 0.00 0.00 68 1004.7
20260502232405 12 328 0.0 1.6 0.00 0.00 0.00 66 1004.6
20260502231905 12 138 0.0 1.6 0.00 0.00 0.00 65 1004.7
20260502231404 12 335 0.0 1.6 0.00 0.00 0.00 65 1004.7
20260502230905 12 124 0.0 1.6 0.00 0.00 0.00 65 1004.7
20260502225405 12 141 0.0 0.0 0.00 0.00 0.00 66 1004.6
20260502224904 13 127 0.0 1.6 0.00 0.00 0.00 66 1004.8
20260502224405 13 81 0.0 1.6 0.00 0.00 0.00 65 1004.8
20260502223904 13 89 0.0 3.2 0.00 0.00 0.00 64 1004.6
20260502222904 13 41 0.0 1.6 0.00 0.00 0.00 64 1004.6
20260502222405 13 98 0.0 3.2 0.00 0.00 0.00 63 1004.6
20260502221904 13 179 0.0 1.6 0.00 0.00 0.00 63 1004.7
20260502221405 13 63 0.0 3.2 0.00 0.00 0.00 64 1004.7
20260502220905 13 117 1.6 4.8 0.00 0.00 0.00 63 1004.7
20260502220404 13 338 0.0 1.6 0.00 0.00 0.00 64 1004.6
20260502215905 13 340 1.6 4.8 0.00 0.00 0.00 65 1004.7
20260502215405 13 120 1.6 4.8 0.00 0.00 0.00 64 1004.7
20260502214905 13 296 0.0 4.8 0.00 0.00 0.00 65 1004.7
20260502214405 13 67 1.6 4.8 0.00 0.00 0.00 65 1004.7
20260502213904 13 83 0.0 1.6 0.00 0.00 0.00 65 1004.7
20260502213405 13 336 1.6 8.0 0.00 0.00 0.00 64 1004.6
20260502211905 13 59 0.0 4.8 0.00 0.00 0.00 65 1004.5
20260502211405 13 316 1.6 4.8 0.00 0.00 0.00 66 1004.6
20260502210905 13 39 1.6 4.8 0.00 0.00 0.00 67 1004.6
20260502210404 13 49 0.0 3.2 0.00 0.00 0.00 66 1004.5
20260502204905 14 335 1.6 3.2 0.00 0.00 0.00 65 1004.5
20260502204405 13 25 1.6 4.8 0.00 0.00 0.00 65 1004.5
20260502203405 13 338 3.2 9.7 0.00 0.00 0.00 66 1004.6
20260502202905 14 18 1.6 4.8 0.00 0.00 0.00 66 1004.7
20260502201904 15 345 3.2 8.0 0.00 0.00 0.00 65 1004.8
20260502201405 15 29 1.6 4.8 0.00 0.00 0.00 62 1004.8
20260502200404 15 357 3.2 8.0 0.00 0.00 0.00 64 1004.9
20260502195905 14 328 4.8 8.0 0.00 0.00 0.00 64 1004.9
20260502195405 14 340 3.2 8.0 0.00 0.00 0.00 65 1005.0
20260502194904 14 333 1.6 8.0 0.00 0.00 0.00 65 1005.0
20260502193905 13 341 3.2 4.8 0.00 0.00 0.00 68 1005.1
20260502193404 14 322 3.2 8.0 0.00 0.00 0.00 68 1005.1
20260502192905 15 328 3.2 8.0 0.00 0.00 0.00 64 1005.2
20260502191905 15 329 3.2 8.0 0.00 0.00 0.00 62 1005.3
20260502191405 14 333 3.2 8.0 0.00 0.00 0.00 63 1005.3
20260502190904 14 345 3.2 8.0 0.00 0.00 0.00 64 1005.3
20260502190404 14 335 4.8 9.7 0.00 0.00 0.00 64 1005.4
20260502185905 14 335 3.2 8.0 0.00 0.00 0.00 64 1005.4
20260502185405 15 332 4.8 8.0 0.00 0.00 0.00 62 1005.4
20260502184404 15 332 3.2 4.8 0.00 0.00 0.00 64 1005.4
20260502183905 14 312 3.2 9.7 0.00 0.00 0.00 65 1005.4
20260502183406 14 317 3.2 8.0 0.00 0.00 0.00 64 1005.5
20260502182904 14 332 1.6 4.8 0.00 0.00 0.00 64 1005.5
20260502182405 14 329 3.2 4.8 0.00 0.00 0.00 64 1005.5
20260502181905 14 303 3.2 8.0 0.00 0.00 0.00 64 1005.5
20260502181404 14 356 3.2 4.8 0.00 0.00 0.00 65 1005.5
20260502180905 15 341 3.2 8.0 0.00 0.00 0.00 65 1005.5
20260502180405 15 320 3.2 8.0 0.00 0.00 0.00 62 1005.5
20260502170404 13 330 1.6 4.8 0.00 0.00 0.00 67 1006.1
20260502163904 12 37 0.0 3.2 0.00 0.00 0.00 70 1006.1
20260502163405 12 344 1.6 3.2 0.00 0.00 0.00 71 1006.1
20260502162905 12 309 1.6 4.8 0.00 0.00 0.00 71 1006.1
20260502161905 12 346 1.6 3.2 0.00 0.00 0.00 72 1006.2
20260502161405 12 51 1.6 3.2 0.00 0.00 0.00 73 1006.4
20260502160904 12 317 1.6 4.8 0.00 0.00 0.00 73 1006.4
20260502160404 12 341 1.6 3.2 0.00 0.00 0.00 73 1006.5
20260502151904 11 175 0.0 3.2 0.00 0.00 0.00 78 1006.7
20260502151404 11 330 1.6 3.2 0.00 0.00 0.00 77 1006.7
20260502150905 11 67 1.6 4.8 0.00 0.00 0.00 79 1006.7
20260502150404 11 333 1.6 3.2 0.00 0.00 0.00 80 1006.7
20260502122905 10 332 3.2 4.8 0.00 0.00 0.00 90 1006.9
20260502122405 10 326 0.0 1.6 0.00 0.00 0.00 91 1006.9
20260502121905 10 138 0.0 1.6 0.00 0.00 0.00 91 1006.6
20260502121404 10 124 0.0 1.6 0.00 0.00 0.00 92 1006.6
20260502120905 10 125 0.0 0.0 0.00 0.00 0.00 92 1006.7
20260502115904 10 125 0.0 1.6 0.00 0.00 0.00 92 1006.5
20260502115404 10 84 0.0 1.6 0.00 0.00 0.00 90 1006.5
20260502114904 10 52 1.6 3.2 0.00 0.00 0.00 92 1006.4
20260502113904 10 12 0.0 0.0 0.00 0.00 0.00 90 1006.4
20260502113405 10 51 0.0 1.6 0.00 0.00 0.00 88 1006.3
20260502112904 10 337 0.0 1.6 0.00 0.00 0.00 90 1006.5
20260502112405 10 332 1.6 3.2 0.00 0.00 0.00 88 1006.7
20260502111905 10 326 0.0 0.0 0.00 0.00 0.00 88 1006.9
20260502111404 10 326 1.6 4.8 0.00 0.00 0.00 87 1006.9
20260502110904 10 334 1.6 4.8 0.00 0.00 0.00 88 1007.1
20260502110404 10 315 3.2 4.8 0.00 0.00 0.00 88 1007.1
20260502105904 10 336 0.0 1.6 0.00 0.00 0.00 89 1006.7
20260502105405 10 315 1.6 3.2 0.00 0.00 0.00 90 1006.7
20260502104904 10 337 0.0 1.6 0.00 0.00 0.00 90 1006.6
20260502104405 10 332 0.0 1.6 0.00 0.00 0.00 90 1006.7
20260502103904 10 331 0.0 0.0 0.00 0.00 0.00 91 1006.6
20260502103405 10 331 0.0 1.6 0.00 0.00 0.00 91 1006.6
20260502102905 9 342 0.0 1.6 0.00 0.00 0.00 91 1006.6
20260502102405 9 333 1.6 4.8 0.00 0.00 0.00 91 1006.4
20260502101904 9 29 0.0 1.6 0.00 0.00 0.00 92 1006.4
20260502101404 9 297 0.0 1.6 0.00 0.00 0.00 92 1006.3
20260502100405 9 329 0.0 3.2 0.00 0.00 0.00 92 1006.3
20260502091404 9 135 0.0 1.6 0.00 0.00 0.00 90 1006.3
20260502090905 9 329 0.0 1.6 0.00 0.00 0.00 90 1006.3
20260502090404 9 330 0.0 1.6 0.00 0.00 0.00 90 1006.4
20260502071404 8 325 0.0 1.6 0.00 0.00 0.00 88 1006.4
20260502070905 8 333 0.0 1.6 0.00 0.00 0.00 88 1006.4
20260502070405 8 333 1.6 1.6 0.00 0.00 0.00 88 1006.4
20260502065404 8 10 0.0 1.6 0.00 0.00 0.00 88 1006.4
20260502064904 8 315 1.6 1.6 0.00 0.00 0.00 87 1006.4
20260502064405 9 337 0.0 1.6 0.00 0.00 0.00 86 1006.5
20260502063904 9 342 0.0 1.6 0.00 0.00 0.00 86 1006.5
20260502063404 9 99 1.6 1.6 0.00 0.00 0.00 85 1006.6
20260502062905 9 325 0.0 1.6 0.00 0.00 0.00 85 1006.8
20260502062404 9 317 0.0 1.6 0.00 0.00 0.00 85 1006.9
20260502061904 9 335 0.0 1.6 0.00 0.00 0.00 85 1006.7
20260502061404 9 31 0.0 3.2 0.00 0.00 0.00 85 1006.6
20260502060905 9 354 0.0 1.6 0.00 0.00 0.00 84 1006.7
20260502060405 9 8 1.6 3.2 0.00 0.00 0.00 84 1006.7
20260502055904 9 287 0.0 3.2 0.00 0.00 0.00 84 1006.7
20260502055405 9 315 0.0 1.6 0.00 0.00 0.00 84 1006.6
20260502054905 9 335 1.6 3.2 0.00 0.00 0.00 84 1006.5
20260502054404 9 357 0.0 1.6 0.00 0.00 0.00 84 1006.6
20260502053405 9 15 0.0 1.6 0.00 0.00 0.00 83 1006.6
20260502052904 9 310 1.6 1.6 0.00 0.00 0.00 82 1006.7
20260502052404 9 341 0.0 3.2 0.00 0.00 0.00 82 1006.7
20260502051904 9 335 0.0 1.6 0.00 0.00 0.00 82 1006.7